OneWeb SL0211

operational
NORAD ID: 48767 Int'l Des: 2021-045 Owner: ONEWEBN Country: UK Constellation: oneweb
LEOCIRCULARPOLARONEWEB_TYPE

About OneWeb SL0211

Description loading...

Live Position

Loading 3D Globe...

Upcoming Passes

Altitude History

Altitude vs Time

uPlot chart will show altitude changes over time

Two-Line Element Set

1 48767U 21045A 25304.06074551 -.00000012 00000-0 -64838-4 0 9994
2 48767 87.8968 304.8496 0002324 95.5995 264.5401 13.16134456214303
Epoch: Oct 31, 2025 • Age: 19 hours

Current Status

Altitude 1202.5 km
Velocity 7.26 km/s
Sub-Earth Point 31.31°N, 136.18°E
Launch Date May 28, 2021
Age 4.4 years
Type internet

Technical Details

Classification Payload
Mass 148.00 kg
Dry Mass 140.00 kg
Total Mass 148.00 kg
Length 1.30 m
Diameter 1.00 m
Span 5.00 m
Shape Trapezoid+2 pan
Manufacturer ONEWUS
Bus Type ARROW
Phase Status In Orbit
Owner/State ONEWEBN/UK

Large Constellations

Loading constellations...